Location: Unspecified
(51.5147°N, 7.4673°E)
Time: 19:17:13
(UTC+01:00)

Explorer 7 - All Passes

Search period start: 16 February 2026 00:00
Search period end: 26 February 2026 00:00
Orbit: 431 x 545 km, 50.2° (Epoch: 16 February)

Date Brightness Start Highest point End Pass type
(mag) Time Alt. Az. Time Alt. Az. Time Alt. Az.
16 Feb - 16:44:32 10° SW 16:47:48 32° SSE 16:51:10 10° E daylight
16 Feb - 18:22:16 10° WSW 18:25:56 70° S 18:29:46 10° E visible
16 Feb - 20:00:33 10° W 20:04:17 62° SSW 20:08:11 10° ESE visible
16 Feb - 21:39:08 10° W 21:42:22 26° SSW 21:45:42 10° SSE visible
17 Feb - 16:18:58 10° SW 16:22:11 31° SSE 16:25:30 10° E daylight
17 Feb - 17:56:40 10° WSW 18:00:17 70° S 18:04:06 10° E daylight
17 Feb - 19:34:56 10° W 19:38:39 63° SSW 19:42:31 10° ESE visible
17 Feb - 21:13:29 10° W 21:16:44 26° SSW 21:20:04 10° SSE visible
18 Feb - 15:53:21 10° SW 15:56:31 30° SSE 15:59:48 10° E daylight
18 Feb - 17:31:01 10° WSW 17:34:38 69° S 17:38:24 10° E daylight
18 Feb - 19:09:17 10° W 19:12:58 64° SSW 19:16:49 10° ESE visible
18 Feb - 20:47:49 10° W 20:51:04 27° SSW 20:54:24 10° SSE visible
19 Feb - 15:27:43 10° SSW 15:30:50 29° SSE 15:34:03 10° E daylight
19 Feb - 17:05:20 10° WSW 17:08:56 68° S 17:12:40 10° E daylight
19 Feb - 18:43:35 10° W 18:47:15 64° SSW 18:51:05 10° ESE visible
19 Feb - 20:22:06 10° W 20:25:22 27° SSW 20:28:42 10° SSE visible
20 Feb - 15:02:02 10° SSW 15:05:07 28° SSE 15:08:17 10° E daylight
20 Feb - 16:39:37 10° WSW 16:43:11 67° S 16:46:54 10° E daylight
20 Feb - 18:17:52 10° W 18:21:31 65° S 18:25:18 10° ESE daylight
20 Feb - 19:56:22 10° W 19:59:37 28° SSW 20:02:58 10° SSE visible
21 Feb - 14:36:20 10° SSW 14:39:21 27° SSE 14:42:28 10° E daylight
21 Feb - 16:13:52 10° WSW 16:17:25 66° S 16:21:06 10° E daylight
21 Feb - 17:52:07 10° W 17:55:44 66° S 17:59:30 10° ESE daylight
21 Feb - 19:30:36 10° W 19:33:50 28° SSW 19:37:12 10° SSE visible
22 Feb - 14:10:36 10° SSW 14:13:34 26° SSE 14:16:38 10° E daylight
22 Feb - 15:48:05 10° WSW 15:51:36 65° S 15:55:16 10° E daylight
22 Feb - 17:26:20 10° W 17:29:55 66° S 17:33:40 10° ESE daylight
22 Feb - 19:04:47 10° W 19:08:02 29° SSW 19:11:23 10° SSE visible
23 Feb - 13:44:49 10° SSW 13:47:45 25° SSE 13:50:45 10° E daylight
23 Feb - 15:22:17 10° WSW 15:25:46 64° S 15:29:23 10° E daylight
23 Feb - 17:00:30 10° W 17:04:04 67° S 17:07:47 10° ESE daylight
23 Feb - 18:38:56 10° W 18:42:12 29° SSW 18:45:32 10° SSE visible
24 Feb - 13:19:01 10° SSW 13:21:54 24° SSE 13:24:50 10° E daylight
24 Feb - 14:56:25 10° WSW 14:59:54 63° SSE 15:03:30 10° E daylight
24 Feb - 16:34:38 10° W 16:38:12 68° S 16:41:53 10° ESE daylight
24 Feb - 18:13:04 10° W 18:16:19 30° SSW 18:19:39 10° SE daylight
25 Feb - 12:53:11 10° SSW 12:56:01 24° SSE 12:58:53 10° E daylight
25 Feb - 14:30:32 10° WSW 14:33:59 62° SSE 14:37:33 10° E daylight
25 Feb - 16:08:44 10° W 16:12:16 68° S 16:15:57 10° ESE daylight
25 Feb - 17:47:09 10° W 17:50:24 31° SSW 17:53:45 10° SE daylight
